AURA

Last updated on July 6, 2021, 3:23 p.m. UTC

1 28376U 04026A   21186.92065344  .00000083  00000-0  28428-4 0  9998
2 28376  98.2104 130.1375 0001514  90.8696 269.2676 14.57115078902762
UTC
Height (km)
Latitude
Longitude
Inclination
Orbital Period
UTC large
Height (km)
Speed (km/s)
/
Latitude / Longitude
Inclination (degrees)
Orbital Period (minutes)
Azimuth
Elevation
Range (km)
Doppler Factor
iOS Compass Heading
iOS Angle